Wetterdaten: Freitag, 13.12.2013
Datum Zeit Temperatur Luftfeuchte Luftdruck Regen Wind Richtung Richtung Taupunkt Windchill Windben
13.12.2013 00:00 -4,9 C 92 % 1027,8 hPa 0,0 l/m 0,0 km/h (0 Bft) NO 45 -6,0 C -5,4 C 0,0 km/h (0 Bft)
13.12.2013 00:05 -4,9 C 92 % 1027,6 hPa 0,0 l/m 0,0 km/h (0 Bft) NO 45 -6,0 C -5,4 C 0,0 km/h (0 Bft)
13.12.2013 00:10 -4,0 C 93 % 1027,6 hPa 0,0 l/m 0,8 km/h (0 Bft) NO 45 -5,0 C -5,2 C 4,0 km/h (1 Bft)
13.12.2013 00:15 -4,2 C 93 % 1027,6 hPa 0,0 l/m 1,3 km/h (1 Bft) NO 45 -5,2 C -4,9 C 0,0 km/h (0 Bft)
13.12.2013 00:19 -4,8 C 92 % 1027,6 hPa 0,0 l/m 0,8 km/h (0 Bft) NO 45 -5,9 C -5,1 C 0,0 km/h (0 Bft)
13.12.2013 00:20 -4,8 C 92 % 1027,6 hPa 0,0 l/m 0,8 km/h (0 Bft) NO 45 -5,9 C -5,1 C 0,0 km/h (0 Bft)
13.12.2013 00:25 -5,4 C 92 % 1027,6 hPa 0,0 l/m 0,0 km/h (0 Bft) NO 45 -6,5 C -5,1 C 0,0 km/h (0 Bft)
13.12.2013 00:30 -5,3 C 92 % 1027,6 hPa 0,0 l/m 0,0 km/h (0 Bft) NO 45 -6,4 C -5,4 C 0,0 km/h (0 Bft)
13.12.2013 00:35 -4,6 C 92 % 1027,6 hPa 0,0 l/m 0,0 km/h (0 Bft) NO 45 -5,7 C -5,5 C 0,0 km/h (0 Bft)
13.12.2013 00:40 -5,3 C 92 % 1027,6 hPa 0,0 l/m 0,0 km/h (0 Bft) N-NO 22 -6,4 C -5,5 C 0,0 km/h (0 Bft)
13.12.2013 00:45 -5,4 C 92 % 1027,5 hPa 0,0 l/m 0,0 km/h (0 Bft) N-NO 22 -6,5 C -5,5 C 0,0 km/h (0 Bft)
13.12.2013 00:50 -5,3 C 92 % 1027,5 hPa 0,0 l/m 0,0 km/h (0 Bft) NO 45 -6,4 C -5,4 C 0,0 km/h (0 Bft)
13.12.2013 00:55 -5,7 C 92 % 1027,5 hPa 0,0 l/m 0,0 km/h (0 Bft) NO 45 -6,8 C -5,4 C 0,0 km/h (0 Bft)
13.12.2013 01:00 -6,2 C 91 % 1027,5 hPa 0,0 l/m 0,0 km/h (0 Bft) O-SO 112 -7,4 C -5,6 C 0,0 km/h (0 Bft)
13.12.2013 01:05 -6,2 C 91 % 1027,5 hPa 0,0 l/m 0,0 km/h (0 Bft) O-SO 112 -7,4 C -5,7 C 0,0 km/h (0 Bft)
13.12.2013 01:10 -5,9 C 91 % 1027,5 hPa 0,0 l/m 0,0 km/h (0 Bft) N-NO 22 -7,1 C -5,8 C 0,0 km/h (0 Bft)
13.12.2013 01:15 -6,0 C 91 % 1027,5 hPa 0,0 l/m 0,0 km/h (0 Bft) N-NO 22 -7,2 C -5,8 C 0,0 km/h (0 Bft)
13.12.2013 01:20 -5,9 C 91 % 1027,5 hPa 0,0 l/m 0,0 km/h (0 Bft) N-NO 22 -7,1 C -5,8 C 0,0 km/h (0 Bft)
13.12.2013 01:25 -5,9 C 91 % 1027,2 hPa 0,0 l/m 0,0 km/h (0 Bft) N-NO 22 -7,1 C -5,9 C 0,0 km/h (0 Bft)
13.12.2013 01:30 -6,4 C 91 % 1027,2 hPa 0,0 l/m 0,0 km/h (0 Bft) N-NO 22 -7,6 C -6,0 C 0,0 km/h (0 Bft)
13.12.2013 01:35 -6,5 C 90 % 1027,2 hPa 0,0 l/m 0,0 km/h (0 Bft) NO 45 -7,9 C -6,2 C 0,0 km/h (0 Bft)
13.12.2013 01:40 -6,6 C 90 % 1027,2 hPa 0,0 l/m 0,0 km/h (0 Bft) NO 45 -8,0 C -6,2 C 0,0 km/h (0 Bft)
13.12.2013 01:45 -6,9 C 90 % 1027,1 hPa 0,0 l/m 0,0 km/h (0 Bft) NO 45 -8,3 C -6,2 C 0,0 km/h (0 Bft)
13.12.2013 01:50 -6,8 C 90 % 1027,1 hPa 0,0 l/m 0,0 km/h (0 Bft) NO 45 -8,2 C -6,4 C 0,0 km/h (0 Bft)
13.12.2013 01:55 -6,6 C 90 % 1027,1 hPa 0,0 l/m 0,0 km/h (0 Bft) NO 45 -8,0 C -6,4 C 0,0 km/h (0 Bft)
13.12.2013 02:00 -6,7 C 90 % 1027,1 hPa 0,0 l/m 0,0 km/h (0 Bft) NO 45 -8,1 C -6,4 C 0,0 km/h (0 Bft)
13.12.2013 02:05 -6,4 C 90 % 1027,0 hPa 0,0 l/m 0,0 km/h (0 Bft) NO 45 -7,8 C -6,4 C 0,0 km/h (0 Bft)
13.12.2013 02:10 -6,6 C 90 % 1027,0 hPa 0,0 l/m 0,0 km/h (0 Bft) NO 45 -8,0 C -6,2 C 0,0 km/h (0 Bft)
13.12.2013 02:15 -6,8 C 90 % 1027,0 hPa 0,0 l/m 0,0 km/h (0 Bft) NO 45 -8,2 C -6,5 C 0,0 km/h (0 Bft)
13.12.2013 02:20 -6,7 C 90 % 1027,0 hPa 0,0 l/m 0,0 km/h (0 Bft) NO 45 -8,1 C -6,5 C 0,0 km/h (0 Bft)
13.12.2013 02:25 -6,8 C 90 % 1027,2 hPa 0,0 l/m 0,0 km/h (0 Bft) NO 45 -8,2 C -6,4 C 0,0 km/h (0 Bft)
13.12.2013 02:30 -6,6 C 90 % 1027,2 hPa 0,0 l/m 0,0 km/h (0 Bft) NO 45 -8,0 C -6,5 C 0,0 km/h (0 Bft)
13.12.2013 02:35 -6,7 C 90 % 1027,2 hPa 0,0 l/m 0,0 km/h (0 Bft) NO 45 -8,1 C -6,6 C 0,0 km/h (0 Bft)
13.12.2013 02:40 -6,7 C 89 % 1027,2 hPa 0,0 l/m 0,0 km/h (0 Bft) N-NO 22 -8,2 C -6,7 C 0,0 km/h (0 Bft)
13.12.2013 02:45 -6,8 C 89 % 1027,1 hPa 0,0 l/m 0,0 km/h (0 Bft) N-NO 22 -8,3 C -6,7 C 0,0 km/h (0 Bft)
13.12.2013 02:50 -6,5 C 90 % 1027,1 hPa 0,0 l/m 0,0 km/h (0 Bft) O-NO 67 -7,9 C -6,6 C 0,0 km/h (0 Bft)
13.12.2013 02:55 -6,7 C 90 % 1027,1 hPa 0,0 l/m 0,0 km/h (0 Bft) N-NO 22 -8,1 C -6,4 C 0,0 km/h (0 Bft)
13.12.2013 03:00 -6,0 C 90 % 1027,1 hPa 0,0 l/m 0,0 km/h (0 Bft) N-NO 22 -7,4 C -6,4 C 0,0 km/h (0 Bft)
13.12.2013 03:05 -6,3 C 90 % 1026,9 hPa 0,0 l/m 0,0 km/h (0 Bft) N-NO 22 -7,7 C -6,4 C 0,0 km/h (0 Bft)
13.12.2013 03:10 -6,4 C 90 % 1026,9 hPa 0,0 l/m 0,0 km/h (0 Bft) N-NO 22 -7,8 C -6,4 C 0,0 km/h (0 Bft)
13.12.2013 03:15 -6,8 C 90 % 1026,9 hPa 0,0 l/m 0,0 km/h (0 Bft) N-NO 22 -8,2 C -6,4 C 0,0 km/h (0 Bft)
13.12.2013 03:20 -6,9 C 90 % 1026,9 hPa 0,0 l/m 0,0 km/h (0 Bft) N-NO 22 -8,3 C -6,7 C 0,0 km/h (0 Bft)
13.12.2013 03:25 -6,8 C 90 % 1026,8 hPa 0,0 l/m 0,0 km/h (0 Bft) N-NO 22 -8,2 C -6,8 C 0,0 km/h (0 Bft)
13.12.2013 03:30 -6,9 C 90 % 1026,8 hPa 0,0 l/m 0,0 km/h (0 Bft) N-NO 22 -8,3 C -6,8 C 0,0 km/h (0 Bft)
13.12.2013 03:35 -7,0 C 89 % 1026,8 hPa 0,0 l/m 0,0 km/h (0 Bft) N-NO 22 -8,5 C -6,8 C 0,0 km/h (0 Bft)
13.12.2013 03:40 -7,2 C 89 % 1026,8 hPa 0,0 l/m 0,0 km/h (0 Bft) NO 45 -8,7 C -7,0 C 0,0 km/h (0 Bft)
13.12.2013 03:45 -6,1 C 90 % 1026,8 hPa 0,0 l/m 0,8 km/h (0 Bft) O 90 -7,5 C -6,7 C 5,1 km/h (1 Bft)
13.12.2013 03:50 -4,2 C 91 % 1026,8 hPa 0,0 l/m 4,2 km/h (1 Bft) O-NO 67 -5,4 C -6,8 C 8,5 km/h (2 Bft)
13.12.2013 03:55 -3,8 C 91 % 1026,8 hPa 0,0 l/m 6,0 km/h (2 Bft) O 90 -5,0 C -7,1 C 6,4 km/h (2 Bft)
13.12.2013 04:00 -5,3 C 91 % 1026,8 hPa 0,0 l/m 3,4 km/h (1 Bft) N-NO 22 -6,5 C -5,4 C 0,0 km/h (0 Bft)
13.12.2013 04:05 -5,9 C 91 % 1026,8 hPa 0,0 l/m 1,1 km/h (1 Bft) N-NO 22 -7,1 C -4,8 C 0,0 km/h (0 Bft)
13.12.2013 04:10 -5,8 C 91 % 1026,8 hPa 0,0 l/m 0,0 km/h (0 Bft) N-NO 22 -7,0 C -5,4 C 0,0 km/h (0 Bft)
13.12.2013 04:15 -5,8 C 91 % 1026,8 hPa 0,0 l/m 0,0 km/h (0 Bft) N-NO 22 -7,0 C -5,6 C 0,0 km/h (0 Bft)
13.12.2013 04:20 -6,1 C 91 % 1026,8 hPa 0,0 l/m 0,0 km/h (0 Bft) N-NO 22 -7,3 C -5,8 C 0,0 km/h (0 Bft)
13.12.2013 04:25 -6,7 C 91 % 1026,7 hPa 0,0 l/m 0,0 km/h (0 Bft) N-NO 22 -7,9 C -6,0 C 0,0 km/h (0 Bft)
13.12.2013 04:30 -6,3 C 91 % 1026,7 hPa 0,0 l/m 0,0 km/h (0 Bft) N-NO 22 -7,5 C -6,2 C 0,0 km/h (0 Bft)
13.12.2013 04:35 -6,4 C 91 % 1026,7 hPa 0,0 l/m 0,2 km/h (0 Bft) N-NO 22 -7,6 C -6,2 C 0,0 km/h (0 Bft)
13.12.2013 04:40 -6,5 C 90 % 1026,7 hPa 0,0 l/m 0,2 km/h (0 Bft) N-NO 22 -7,9 C -6,2 C 0,0 km/h (0 Bft)
13.12.2013 04:45 -6,8 C 90 % 1026,7 hPa 0,0 l/m 0,0 km/h (0 Bft) N-NO 22 -8,2 C -6,2 C 0,0 km/h (0 Bft)
13.12.2013 04:50 -6,9 C 90 % 1026,7 hPa 0,0 l/m 0,0 km/h (0 Bft) N-NO 22 -8,3 C -6,6 C 0,0 km/h (0 Bft)
13.12.2013 04:55 -6,9 C 90 % 1026,7 hPa 0,0 l/m 0,0 km/h (0 Bft) N-NO 22 -8,3 C -6,8 C 0,0 km/h (0 Bft)
13.12.2013 05:00 -5,8 C 90 % 1026,7 hPa 0,0 l/m 0,5 km/h (0 Bft) NO 45 -7,2 C -6,9 C 6,1 km/h (2 Bft)
13.12.2013 05:05 -4,3 C 91 % 1026,6 hPa 0,0 l/m 2,6 km/h (1 Bft) NO 45 -5,5 C -6,4 C 2,7 km/h (1 Bft)
13.12.2013 05:10 -4,4 C 91 % 1026,6 hPa 0,0 l/m 2,4 km/h (1 Bft) N-NO 22 -5,6 C -5,7 C 0,0 km/h (0 Bft)
13.12.2013 05:15 -6,0 C 91 % 1026,6 hPa 0,0 l/m 0,3 km/h (0 Bft) N 360 -7,2 C -5,6 C 0,0 km/h (0 Bft)
13.12.2013 05:20 -6,1 C 91 % 1026,6 hPa 0,0 l/m 0,0 km/h (0 Bft) N 360 -7,3 C -5,8 C 0,0 km/h (0 Bft)
13.12.2013 05:25 -6,2 C 91 % 1026,6 hPa 0,0 l/m 0,0 km/h (0 Bft) N 360 -7,4 C -5,9 C 0,0 km/h (0 Bft)
13.12.2013 05:30 -6,5 C 90 % 1026,6 hPa 0,0 l/m 0,0 km/h (0 Bft) N 360 -7,9 C -6,2 C 0,0 km/h (0 Bft)
13.12.2013 05:35 -6,7 C 90 % 1026,6 hPa 0,0 l/m 0,0 km/h (0 Bft) N 360 -8,1 C -6,4 C 0,0 km/h (0 Bft)
13.12.2013 05:40 -6,7 C 90 % 1026,6 hPa 0,0 l/m 0,0 km/h (0 Bft) N 360 -8,1 C -6,6 C 0,0 km/h (0 Bft)
13.12.2013 05:45 -6,2 C 90 % 1026,8 hPa 0,0 l/m 0,0 km/h (0 Bft) N 360 -7,6 C -6,5 C 0,0 km/h (0 Bft)
13.12.2013 05:50 -6,4 C 90 % 1026,8 hPa 0,0 l/m 0,0 km/h (0 Bft) N 360 -7,8 C -6,5 C 0,0 km/h (0 Bft)
13.12.2013 05:55 -6,6 C 90 % 1026,8 hPa 0,0 l/m 0,0 km/h (0 Bft) N 360 -8,0 C -6,6 C 0,0 km/h (0 Bft)
13.12.2013 06:00 -6,9 C 90 % 1026,8 hPa 0,0 l/m 0,0 km/h (0 Bft) N 360 -8,3 C -6,7 C 0,0 km/h (0 Bft)
13.12.2013 06:05 -7,1 C 90 % 1026,6 hPa 0,0 l/m 0,0 km/h (0 Bft) N 360 -8,5 C -7,0 C 0,0 km/h (0 Bft)
13.12.2013 06:10 -6,7 C 89 % 1026,6 hPa 0,0 l/m 0,0 km/h (0 Bft) N 360 -8,2 C -7,1 C 0,0 km/h (0 Bft)
13.12.2013 06:15 -6,1 C 90 % 1026,6 hPa 0,0 l/m 0,0 km/h (0 Bft) N 360 -7,5 C -6,9 C 0,0 km/h (0 Bft)
13.12.2013 06:20 -6,9 C 89 % 1026,6 hPa 0,0 l/m 0,0 km/h (0 Bft) N 360 -8,4 C -6,8 C 0,0 km/h (0 Bft)
13.12.2013 06:25 -6,9 C 89 % 1026,8 hPa 0,0 l/m 0,0 km/h (0 Bft) N 360 -8,4 C -7,0 C 0,0 km/h (0 Bft)
13.12.2013 06:30 -7,4 C 89 % 1026,8 hPa 0,0 l/m 0,0 km/h (0 Bft) N 360 -8,9 C -7,1 C 0,0 km/h (0 Bft)
13.12.2013 06:35 -7,1 C 89 % 1026,8 hPa 0,0 l/m 0,0 km/h (0 Bft) N 360 -8,6 C -6,9 C 0,0 km/h (0 Bft)
13.12.2013 06:40 -6,8 C 89 % 1026,8 hPa 0,0 l/m 0,0 km/h (0 Bft) N 360 -8,3 C -6,9 C 0,0 km/h (0 Bft)
13.12.2013 06:45 -7,2 C 89 % 1026,6 hPa 0,0 l/m 0,0 km/h (0 Bft) N 360 -8,7 C -6,9 C 0,0 km/h (0 Bft)
13.12.2013 06:50 -7,4 C 89 % 1026,6 hPa 0,0 l/m 0,0 km/h (0 Bft) N 360 -8,9 C -7,1 C 0,0 km/h (0 Bft)
13.12.2013 06:55 -7,3 C 89 % 1026,6 hPa 0,0 l/m 0,0 km/h (0 Bft) N 360 -8,8 C -7,3 C 0,0 km/h (0 Bft)
13.12.2013 07:00 -7,2 C 89 % 1026,6 hPa 0,0 l/m 0,0 km/h (0 Bft) N 360 -8,7 C -7,4 C 0,0 km/h (0 Bft)
13.12.2013 07:05 -7,2 C 89 % 1026,5 hPa 0,0 l/m 0,0 km/h (0 Bft) N 360 -8,7 C -7,3 C 0,0 km/h (0 Bft)
13.12.2013 07:10 -7,4 C 89 % 1026,5 hPa 0,0 l/m 0,0 km/h (0 Bft) N 360 -8,9 C -7,2 C 0,0 km/h (0 Bft)
13.12.2013 07:15 -7,4 C 89 % 1026,5 hPa 0,0 l/m 0,0 km/h (0 Bft) N 360 -8,9 C -7,3 C 0,0 km/h (0 Bft)
13.12.2013 07:20 -7,8 C 89 % 1026,5 hPa 0,0 l/m 0,0 km/h (0 Bft) N 360 -9,3 C -7,3 C 0,0 km/h (0 Bft)
13.12.2013 07:25 -7,6 C 89 % 1026,6 hPa 0,0 l/m 0,0 km/h (0 Bft) N 360 -9,1 C -7,4 C 0,0 km/h (0 Bft)
13.12.2013 07:30 -7,5 C 89 % 1026,6 hPa 0,0 l/m 0,0 km/h (0 Bft) N 360 -9,0 C -7,4 C 0,0 km/h (0 Bft)
13.12.2013 07:35 -7,7 C 89 % 1026,6 hPa 0,0 l/m 0,0 km/h (0 Bft) N 360 -9,2 C -7,4 C 0,0 km/h (0 Bft)
13.12.2013 07:40 -7,5 C 88 % 1026,6 hPa 0,0 l/m 0,0 km/h (0 Bft) N 360 -9,1 C -7,5 C 0,0 km/h (0 Bft)
13.12.2013 07:45 -7,4 C 88 % 1026,3 hPa 0,0 l/m 0,0 km/h (0 Bft) N 360 -9,0 C -7,4 C 0,0 km/h (0 Bft)
13.12.2013 07:50 -7,4 C 89 % 1026,3 hPa 0,0 l/m 0,0 km/h (0 Bft) N 360 -8,9 C -7,4 C 0,0 km/h (0 Bft)
13.12.2013 07:55 -7,5 C 89 % 1026,3 hPa 0,0 l/m 0,0 km/h (0 Bft) N 360 -9,0 C -7,4 C 0,0 km/h (0 Bft)
13.12.2013 08:00 -7,1 C 89 % 1026,3 hPa 0,0 l/m 0,0 km/h (0 Bft) N 360 -8,6 C -7,3 C 0,0 km/h (0 Bft)
13.12.2013 08:05 -7,4 C 89 % 1026,3 hPa 0,0 l/m 0,0 km/h (0 Bft) N 360 -8,9 C -7,3 C 0,0 km/h (0 Bft)
13.12.2013 08:10 -7,1 C 89 % 1026,3 hPa 0,0 l/m 0,0 km/h (0 Bft) N 360 -8,6 C -7,3 C 0,0 km/h (0 Bft)
13.12.2013 08:15 -7,0 C 89 % 1026,3 hPa 0,0 l/m 0,0 km/h (0 Bft) NO 45 -8,5 C -7,1 C 0,0 km/h (0 Bft)
13.12.2013 08:20 -6,9 C 89 % 1026,3 hPa 0,0 l/m 0,0 km/h (0 Bft) NO 45 -8,4 C -6,9 C 0,0 km/h (0 Bft)
13.12.2013 08:25 -6,7 C 89 % 1026,2 hPa 0,0 l/m 0,0 km/h (0 Bft) NO 45 -8,2 C -6,8 C 0,0 km/h (0 Bft)
13.12.2013 08:30 -6,9 C 89 % 1026,2 hPa 0,0 l/m 0,0 km/h (0 Bft) O-SO 112 -8,4 C -6,5 C 0,0 km/h (0 Bft)
13.12.2013 08:35 -6,9 C 89 % 1026,2 hPa 0,0 l/m 0,0 km/h (0 Bft) O-SO 112 -8,4 C -6,3 C 0,0 km/h (0 Bft)
13.12.2013 08:40 -7,3 C 89 % 1026,2 hPa 0,0 l/m 0,0 km/h (0 Bft) N 360 -8,8 C -6,7 C 0,0 km/h (0 Bft)
13.12.2013 08:45 -7,0 C 89 % 1026,3 hPa 0,0 l/m 0,0 km/h (0 Bft) N 360 -8,5 C -6,8 C 0,0 km/h (0 Bft)
13.12.2013 08:50 -6,6 C 89 % 1026,3 hPa 0,0 l/m 0,0 km/h (0 Bft) NO 45 -8,1 C -6,7 C 0,0 km/h (0 Bft)
13.12.2013 08:55 -6,6 C 89 % 1026,3 hPa 0,0 l/m 0,0 km/h (0 Bft) O-NO 67 -8,1 C -6,4 C 0,0 km/h (0 Bft)
13.12.2013 09:00 -6,3 C 89 % 1026,3 hPa 0,0 l/m 0,0 km/h (0 Bft) O-NO 67 -7,8 C -6,2 C 0,0 km/h (0 Bft)
13.12.2013 09:05 -6,3 C 89 % 1026,2 hPa 0,0 l/m 0,0 km/h (0 Bft) O-NO 67 -7,8 C -6,2 C 0,0 km/h (0 Bft)
13.12.2013 09:10 -6,5 C 89 % 1026,2 hPa 0,0 l/m 0,0 km/h (0 Bft) N 360 -8,0 C -6,1 C 0,0 km/h (0 Bft)
13.12.2013 09:15 -6,4 C 89 % 1026,2 hPa 0,0 l/m 0,0 km/h (0 Bft) N 360 -7,9 C -6,1 C 0,0 km/h (0 Bft)
13.12.2013 09:20 -6,2 C 89 % 1026,2 hPa 0,0 l/m 0,0 km/h (0 Bft) N-NO 22 -7,7 C -5,8 C 0,0 km/h (0 Bft)
13.12.2013 09:25 -6,0 C 89 % 1026,3 hPa 0,0 l/m 0,0 km/h (0 Bft) N-NO 22 -7,5 C -5,6 C 0,0 km/h (0 Bft)
13.12.2013 09:30 -6,0 C 89 % 1026,3 hPa 0,0 l/m 0,0 km/h (0 Bft) N 360 -7,5 C -5,3 C 0,0 km/h (0 Bft)
13.12.2013 09:35 -6,0 C 89 % 1026,3 hPa 0,0 l/m 0,0 km/h (0 Bft) N 360 -7,5 C -5,3 C 0,0 km/h (0 Bft)
13.12.2013 09:40 -5,8 C 90 % 1026,3 hPa 0,0 l/m 0,0 km/h (0 Bft) N 360 -7,2 C -5,4 C 0,0 km/h (0 Bft)
13.12.2013 09:45 -5,4 C 90 % 1026,2 hPa 0,0 l/m 0,0 km/h (0 Bft) N 360 -6,8 C -5,2 C 0,0 km/h (0 Bft)
13.12.2013 09:50 -5,4 C 90 % 1026,2 hPa 0,0 l/m 0,0 km/h (0 Bft) N 360 -6,8 C -5,0 C 0,0 km/h (0 Bft)
13.12.2013 09:55 -5,2 C 90 % 1026,2 hPa 0,0 l/m 0,0 km/h (0 Bft) N 360 -6,6 C -4,9 C 0,0 km/h (0 Bft)
13.12.2013 10:00 -5,1 C 90 % 1026,2 hPa 0,0 l/m 0,0 km/h (0 Bft) N 360 -6,5 C -4,7 C 0,0 km/h (0 Bft)
13.12.2013 10:05 -5,2 C 90 % 1026,1 hPa 0,0 l/m 0,0 km/h (0 Bft) N 360 -6,6 C -4,7 C 0,0 km/h (0 Bft)
13.12.2013 10:10 -5,0 C 91 % 1026,1 hPa 0,0 l/m 0,0 km/h (0 Bft) N 360 -6,2 C -4,7 C 0,0 km/h (0 Bft)
13.12.2013 10:14 -5,0 C 91 % 1026,1 hPa 0,0 l/m 0,0 km/h (0 Bft) N 360 -6,2 C -4,4 C 0,0 km/h (0 Bft)
13.12.2013 10:15 -5,0 C 91 % 1026,1 hPa 0,0 l/m 0,0 km/h (0 Bft) N 360 -6,2 C -4,4 C 0,0 km/h (0 Bft)
13.12.2013 10:20 -4,7 C 91 % 1026,1 hPa 0,0 l/m 0,0 km/h (0 Bft) N 360 -5,9 C -4,2 C 0,0 km/h (0 Bft)
13.12.2013 10:25 -4,4 C 91 % 1026,2 hPa 0,0 l/m 0,0 km/h (0 Bft) N 360 -5,6 C -4,0 C 0,0 km/h (0 Bft)
13.12.2013 10:30 -4,4 C 91 % 1026,2 hPa 0,0 l/m 0,0 km/h (0 Bft) N 360 -5,6 C -3,8 C 0,0 km/h (0 Bft)
13.12.2013 10:35 -4,2 C 91 % 1026,2 hPa 0,0 l/m 0,0 km/h (0 Bft) N 360 -5,4 C -3,7 C 0,0 km/h (0 Bft)
13.12.2013 10:40 -3,9 C 92 % 1026,2 hPa 0,0 l/m 0,0 km/h (0 Bft) N 360 -5,0 C -3,5 C 0,0 km/h (0 Bft)
13.12.2013 10:45 -3,6 C 92 % 1026,0 hPa 0,0 l/m 0,0 km/h (0 Bft) N 360 -4,7 C -3,4 C 0,0 km/h (0 Bft)
13.12.2013 10:50 -3,4 C 92 % 1026,0 hPa 0,0 l/m 0,0 km/h (0 Bft) N 360 -4,5 C -3,2 C 0,0 km/h (0 Bft)
13.12.2013 10:55 -3,1 C 92 % 1026,0 hPa 0,0 l/m 0,0 km/h (0 Bft) N 360 -4,2 C -3,0 C 0,0 km/h (0 Bft)
13.12.2013 11:00 -2,5 C 93 % 1026,0 hPa 0,0 l/m 0,0 km/h (0 Bft) NO 45 -3,5 C -2,8 C 0,0 km/h (0 Bft)
13.12.2013 11:05 -2,4 C 93 % 1026,1 hPa 0,0 l/m 0,0 km/h (0 Bft) N-NO 22 -3,4 C -2,5 C 0,0 km/h (0 Bft)
13.12.2013 11:10 -2,1 C 93 % 1026,1 hPa 0,0 l/m 0,0 km/h (0 Bft) N-NO 22 -3,1 C -2,2 C 0,0 km/h (0 Bft)
13.12.2013 11:15 -2,4 C 93 % 1026,1 hPa 0,0 l/m 0,0 km/h (0 Bft) N-NO 22 -3,4 C -2,1 C 0,0 km/h (0 Bft)
13.12.2013 11:20 -2,5 C 93 % 1026,1 hPa 0,0 l/m 0,0 km/h (0 Bft) N-NO 22 -3,5 C -2,1 C 0,0 km/h (0 Bft)
13.12.2013 11:25 -2,6 C 93 % 1025,9 hPa 0,0 l/m 0,0 km/h (0 Bft) N-NO 22 -3,6 C -2,1 C 0,0 km/h (0 Bft)
13.12.2013 11:30 -1,9 C 93 % 1025,9 hPa 0,0 l/m 0,0 km/h (0 Bft) NO 45 -2,9 C -2,0 C 0,0 km/h (0 Bft)
13.12.2013 11:35 -1,6 C 94 % 1025,9 hPa 0,0 l/m 0,0 km/h (0 Bft) O-NO 67 -2,4 C -1,9 C 0,0 km/h (0 Bft)
13.12.2013 11:40 -1,4 C 94 % 1025,9 hPa 0,0 l/m 0,0 km/h (0 Bft) N-NO 22 -2,2 C -1,5 C 0,0 km/h (0 Bft)
13.12.2013 11:45 -1,4 C 94 % 1025,8 hPa 0,0 l/m 0,0 km/h (0 Bft) N-NO 22 -2,2 C -1,3 C 0,0 km/h (0 Bft)
13.12.2013 11:50 -1,4 C 94 % 1025,8 hPa 0,0 l/m 0,0 km/h (0 Bft) O 90 -2,2 C -1,2 C 0,0 km/h (0 Bft)
13.12.2013 11:55 -1,0 C 94 % 1025,8 hPa 0,0 l/m 0,0 km/h (0 Bft) NO 45 -1,8 C -1,1 C 0,0 km/h (0 Bft)
13.12.2013 12:00 -0,7 C 94 % 1025,8 hPa 0,0 l/m 0,0 km/h (0 Bft) NO 45 -1,5 C -1,0 C 0,0 km/h (0 Bft)
13.12.2013 12:05 -0,8 C 94 % 1025,4 hPa 0,0 l/m 0,0 km/h (0 Bft) NO 45 -1,6 C -0,9 C 0,0 km/h (0 Bft)
13.12.2013 12:10 -0,8 C 94 % 1025,4 hPa 0,0 l/m 0,0 km/h (0 Bft) O 90 -1,6 C -0,9 C 0,0 km/h (0 Bft)
13.12.2013 12:15 -0,6 C 94 % 1025,4 hPa 0,0 l/m 0,0 km/h (0 Bft) O 90 -1,4 C -0,9 C 0,0 km/h (0 Bft)
13.12.2013 12:20 -0,1 C 94 % 1025,4 hPa 0,0 l/m 0,0 km/h (0 Bft) O 90 -0,9 C -0,8 C 0,0 km/h (0 Bft)
13.12.2013 12:25 0,2 C 95 % 1025,1 hPa 0,0 l/m 0,0 km/h (0 Bft) O-NO 67 -0,5 C -0,6 C 0,0 km/h (0 Bft)
13.12.2013 12:30 0,1 C 94 % 1025,1 hPa 0,0 l/m 0,0 km/h (0 Bft) O 90 -0,7 C -0,4 C 0,0 km/h (0 Bft)
13.12.2013 12:35 0,3 C 94 % 1025,1 hPa 0,0 l/m 0,0 km/h (0 Bft) NO 45 -0,5 C -0,4 C 0,0 km/h (0 Bft)
13.12.2013 12:40 0,6 C 94 % 1025,1 hPa 0,0 l/m 0,0 km/h (0 Bft) O-NO 67 -0,3 C -0,2 C 0,0 km/h (0 Bft)
13.12.2013 12:45 0,9 C 94 % 1024,8 hPa 0,0 l/m 0,0 km/h (0 Bft) O-NO 67 0,0 C -0,1 C 0,0 km/h (0 Bft)
13.12.2013 12:50 1,1 C 94 % 1024,8 hPa 0,0 l/m 0,0 km/h (0 Bft) O-SO 112 0,2 C 0,0 C 0,0 km/h (0 Bft)
13.12.2013 12:55 1,3 C 94 % 1024,8 hPa 0,0 l/m 0,0 km/h (0 Bft) O 90 0,4 C 0,1 C 0,0 km/h (0 Bft)
13.12.2013 13:00 1,5 C 94 % 1024,8 hPa 0,0 l/m 0,0 km/h (0 Bft) O-NO 67 0,6 C 0,1 C 0,0 km/h (0 Bft)
13.12.2013 13:05 1,8 C 94 % 1024,9 hPa 0,0 l/m 0,0 km/h (0 Bft) O 90 0,9 C 0,3 C 0,0 km/h (0 Bft)
13.12.2013 13:10 1,9 C 94 % 1024,9 hPa 0,0 l/m 0,0 km/h (0 Bft) O-SO 112 1,0 C 0,5 C 0,0 km/h (0 Bft)
13.12.2013 13:15 2,2 C 94 % 1024,9 hPa 0,0 l/m 0,0 km/h (0 Bft) O 90 1,3 C 0,6 C 0,0 km/h (0 Bft)
13.12.2013 13:20 2,4 C 93 % 1024,9 hPa 0,0 l/m 0,0 km/h (0 Bft) NO 45 1,4 C 0,9 C 0,0 km/h (0 Bft)
13.12.2013 13:25 2,5 C 93 % 1024,7 hPa 0,0 l/m 0,0 km/h (0 Bft) O 90 1,5 C 1,0 C 0,0 km/h (0 Bft)
13.12.2013 13:30 2,7 C 92 % 1024,7 hPa 0,0 l/m 0,0 km/h (0 Bft) O-NO 67 1,5 C 1,1 C 0,0 km/h (0 Bft)
13.12.2013 13:35 2,6 C 92 % 1024,7 hPa 0,0 l/m 0,0 km/h (0 Bft) O 90 1,4 C 1,2 C 0,0 km/h (0 Bft)
13.12.2013 13:40 2,7 C 91 % 1024,7 hPa 0,0 l/m 0,0 km/h (0 Bft) O-NO 67 1,4 C 2,0 C 0,0 km/h (0 Bft)
13.12.2013 13:45 2,7 C 89 % 1024,4 hPa 0,0 l/m 0,0 km/h (0 Bft) NO 45 1,1 C 3,7 C 0,0 km/h (0 Bft)
13.12.2013 13:50 2,5 C 89 % 1024,4 hPa 0,0 l/m 0,0 km/h (0 Bft) O-SO 112 0,9 C 6,4 C 0,0 km/h (0 Bft)
13.12.2013 13:55 2,8 C 89 % 1024,4 hPa 0,0 l/m 0,0 km/h (0 Bft) O 90 1,2 C 7,6 C 0,0 km/h (0 Bft)
13.12.2013 14:00 3,5 C 87 % 1024,4 hPa 0,0 l/m 0,0 km/h (0 Bft) O-NO 67 1,5 C 8,9 C 0,0 km/h (0 Bft)
13.12.2013 14:05 4,0 C 85 % 1024,2 hPa 0,0 l/m 0,0 km/h (0 Bft) NO 45 1,7 C 9,3 C 0,0 km/h (0 Bft)
13.12.2013 14:10 3,4 C 84 % 1024,2 hPa 0,0 l/m 0,0 km/h (0 Bft) O-NO 67 1,0 C 9,8 C 0,0 km/h (0 Bft)
13.12.2013 14:15 2,7 C 84 % 1024,2 hPa 0,0 l/m 0,0 km/h (0 Bft) NO 45 0,3 C 9,8 C 0,0 km/h (0 Bft)
13.12.2013 14:20 3,0 C 85 % 1024,2 hPa 0,0 l/m 0,0 km/h (0 Bft) O 90 0,7 C 8,5 C 0,0 km/h (0 Bft)
13.12.2013 14:25 3,0 C 85 % 1024,6 hPa 0,0 l/m 0,0 km/h (0 Bft) NO 45 0,7 C 7,4 C 0,0 km/h (0 Bft)
13.12.2013 14:30 3,1 C 86 % 1024,6 hPa 0,0 l/m 0,0 km/h (0 Bft) NO 45 1,0 C 6,5 C 0,0 km/h (0 Bft)
13.12.2013 14:35 3,1 C 86 % 1024,6 hPa 0,0 l/m 0,0 km/h (0 Bft) NO 45 1,0 C 6,8 C 0,0 km/h (0 Bft)
13.12.2013 14:40 3,0 C 86 % 1024,6 hPa 0,0 l/m 0,0 km/h (0 Bft) O-NO 67 0,9 C 7,9 C 0,0 km/h (0 Bft)
13.12.2013 14:45 2,8 C 86 % 1024,4 hPa 0,0 l/m 0,0 km/h (0 Bft) O 90 0,7 C 8,4 C 0,0 km/h (0 Bft)
13.12.2013 14:50 2,8 C 87 % 1024,4 hPa 0,0 l/m 0,0 km/h (0 Bft) O 90 0,9 C 7,8 C 0,0 km/h (0 Bft)
13.12.2013 14:55 2,8 C 86 % 1024,4 hPa 0,0 l/m 0,0 km/h (0 Bft) NO 45 0,7 C 7,0 C 0,0 km/h (0 Bft)
13.12.2013 15:00 2,6 C 86 % 1024,4 hPa 0,0 l/m 0,0 km/h (0 Bft) O 90 0,5 C 6,2 C 0,0 km/h (0 Bft)
13.12.2013 15:05 2,5 C 86 % 1024,2 hPa 0,0 l/m 0,0 km/h (0 Bft) O 90 0,4 C 5,3 C 0,0 km/h (0 Bft)
13.12.2013 15:10 2,4 C 86 % 1024,2 hPa 0,0 l/m 0,0 km/h (0 Bft) O-NO 67 0,3 C 3,8 C 0,0 km/h (0 Bft)
13.12.2013 15:14 2,3 C 86 % 1024,2 hPa 0,0 l/m 0,0 km/h (0 Bft) O 90 0,2 C 3,0 C 0,0 km/h (0 Bft)
13.12.2013 15:15 2,3 C 86 % 1024,2 hPa 0,0 l/m 0,0 km/h (0 Bft) O 90 0,2 C 3,0 C 0,0 km/h (0 Bft)
13.12.2013 15:20 2,2 C 86 % 1024,2 hPa 0,0 l/m 0,0 km/h (0 Bft) O 90 0,1 C 2,3 C 0,0 km/h (0 Bft)
13.12.2013 15:25 2,2 C 86 % 1024,4 hPa 0,0 l/m 0,0 km/h (0 Bft) O-NO 67 0,1 C 2,2 C 0,0 km/h (0 Bft)
13.12.2013 15:30 2,2 C 86 % 1024,4 hPa 0,0 l/m 0,0 km/h (0 Bft) O-NO 67 0,1 C 1,9 C 0,0 km/h (0 Bft)
13.12.2013 15:35 2,1 C 86 % 1024,4 hPa 0,0 l/m 0,0 km/h (0 Bft) O-NO 67 0,0 C 1,7 C 0,0 km/h (0 Bft)
13.12.2013 15:40 2,0 C 86 % 1024,4 hPa 0,0 l/m 0,0 km/h (0 Bft) O-NO 67 -0,1 C 1,5 C 0,0 km/h (0 Bft)
13.12.2013 15:45 2,2 C 86 % 1024,4 hPa 0,0 l/m 0,0 km/h (0 Bft) NO 45 0,1 C 1,4 C 0,0 km/h (0 Bft)
13.12.2013 15:50 2,1 C 86 % 1024,4 hPa 0,0 l/m 0,0 km/h (0 Bft) O-NO 67 0,0 C 1,1 C 0,0 km/h (0 Bft)
13.12.2013 15:55 1,9 C 86 % 1024,4 hPa 0,0 l/m 0,0 km/h (0 Bft) O-NO 67 -0,2 C 0,9 C 0,0 km/h (0 Bft)
13.12.2013 16:00 0,6 C 85 % 1024,4 hPa 0,0 l/m 0,0 km/h (0 Bft) O-SO 112 -1,6 C 0,5 C 0,0 km/h (0 Bft)
13.12.2013 16:05 0,1 C 85 % 1024,2 hPa 0,0 l/m 0,0 km/h (0 Bft) O 90 -2,1 C 0,1 C 0,0 km/h (0 Bft)
13.12.2013 16:10 0,8 C 86 % 1024,2 hPa 0,0 l/m 0,0 km/h (0 Bft) O-NO 67 -1,3 C -0,4 C 0,0 km/h (0 Bft)
13.12.2013 16:15 0,8 C 86 % 1024,2 hPa 0,0 l/m 0,0 km/h (0 Bft) O 90 -1,3 C -0,6 C 0,0 km/h (0 Bft)
13.12.2013 16:20 -0,2 C 85 % 1024,2 hPa 0,0 l/m 0,0 km/h (0 Bft) O-NO 67 -2,4 C -1,2 C 0,0 km/h (0 Bft)
13.12.2013 16:25 0,3 C 86 % 1024,2 hPa 0,0 l/m 0,8 km/h (0 Bft) NO 45 -1,8 C -1,4 C 6,6 km/h (2 Bft)
13.12.2013 16:30 0,4 C 87 % 1024,2 hPa 0,0 l/m 2,6 km/h (1 Bft) O-SO 112 -1,5 C -1,7 C 3,5 km/h (1 Bft)
13.12.2013 16:35 0,2 C 87 % 1024,2 hPa 0,0 l/m 3,5 km/h (1 Bft) O-NO 67 -1,7 C -2,8 C 7,1 km/h (2 Bft)
13.12.2013 16:40 -0,3 C 86 % 1024,2 hPa 0,0 l/m 3,7 km/h (1 Bft) O 90 -2,3 C -3,1 C 3,5 km/h (1 Bft)
13.12.2013 16:45 -0,5 C 87 % 1024,4 hPa 0,0 l/m 3,2 km/h (1 Bft) O 90 -2,4 C -2,9 C 2,3 km/h (1 Bft)
13.12.2013 16:50 -0,7 C 86 % 1024,4 hPa 0,0 l/m 2,4 km/h (1 Bft) O 90 -2,7 C -2,7 C 5,6 km/h (1 Bft)
13.12.2013 16:55 -0,6 C 87 % 1024,4 hPa 0,0 l/m 2,4 km/h (1 Bft) O-NO 67 -2,5 C -2,8 C 1,6 km/h (1 Bft)
13.12.2013 17:00 -1,0 C 87 % 1024,4 hPa 0,0 l/m 1,9 km/h (1 Bft) O-NO 67 -2,9 C -2,9 C 3,1 km/h (1 Bft)
13.12.2013 17:05 -1,1 C 87 % 1024,4 hPa 0,0 l/m 1,4 km/h (1 Bft) NO 45 -3,0 C -3,0 C 4,3 km/h (1 Bft)
13.12.2013 17:10 -2,0 C 87 % 1024,4 hPa 0,0 l/m 1,1 km/h (1 Bft) O-SO 112 -3,9 C -3,0 C 0,0 km/h (0 Bft)
13.12.2013 17:15 -2,6 C 87 % 1024,4 hPa 0,0 l/m 1,0 km/h (0 Bft) O-NO 67 -4,5 C -3,3 C 5,0 km/h (1 Bft)
13.12.2013 17:20 -1,9 C 88 % 1024,4 hPa 0,0 l/m 2,3 km/h (1 Bft) O 90 -3,6 C -3,2 C 1,6 km/h (1 Bft)
13.12.2013 17:25 -2,4 C 88 % 1024,2 hPa 0,0 l/m 2,4 km/h (1 Bft) SO 135 -4,1 C -3,4 C 0,0 km/h (0 Bft)
13.12.2013 17:30 -2,3 C 88 % 1024,2 hPa 0,0 l/m 2,1 km/h (1 Bft) O-NO 67 -4,0 C -3,3 C 6,0 km/h (2 Bft)
13.12.2013 17:35 -2,0 C 88 % 1024,2 hPa 0,0 l/m 3,4 km/h (1 Bft) O-SO 112 -3,7 C -4,1 C 2,9 km/h (1 Bft)
13.12.2013 17:40 -2,5 C 88 % 1024,2 hPa 0,0 l/m 4,0 km/h (1 Bft) O-NO 67 -4,2 C -4,7 C 5,5 km/h (1 Bft)
13.12.2013 17:45 -2,3 C 88 % 1024,2 hPa 0,0 l/m 3,1 km/h (1 Bft) NO 45 -4,0 C -4,1 C 0,0 km/h (0 Bft)
13.12.2013 17:50 -3,2 C 88 % 1024,2 hPa 0,0 l/m 1,3 km/h (1 Bft) NO 45 -4,9 C -3,7 C 0,0 km/h (0 Bft)
13.12.2013 17:55 -3,6 C 88 % 1024,2 hPa 0,0 l/m 0,0 km/h (0 Bft) NO 45 -5,3 C -4,0 C 0,0 km/h (0 Bft)
13.12.2013 18:00 -4,2 C 88 % 1024,2 hPa 0,0 l/m 0,0 km/h (0 Bft) NO 45 -5,9 C -4,3 C 0,0 km/h (0 Bft)
13.12.2013 18:05 -4,3 C 88 % 1024,2 hPa 0,0 l/m 0,0 km/h (0 Bft) NO 45 -6,0 C -4,4 C 0,0 km/h (0 Bft)
13.12.2013 18:10 -4,5 C 88 % 1024,2 hPa 0,0 l/m 0,0 km/h (0 Bft) NO 45 -6,2 C -4,3 C 0,0 km/h (0 Bft)
13.12.2013 18:15 -4,7 C 88 % 1024,2 hPa 0,0 l/m 0,0 km/h (0 Bft) NO 45 -6,4 C -4,3 C 0,0 km/h (0 Bft)
13.12.2013 18:20 -4,3 C 88 % 1024,2 hPa 0,0 l/m 0,0 km/h (0 Bft) O 90 -6,0 C -4,6 C 1,9 km/h (1 Bft)
13.12.2013 18:25 -3,6 C 89 % 1024,3 hPa 0,0 l/m 0,3 km/h (0 Bft) NO 45 -5,1 C -4,6 C 0,0 km/h (0 Bft)
13.12.2013 18:30 -4,2 C 89 % 1024,3 hPa 0,0 l/m 0,3 km/h (0 Bft) O 90 -5,7 C -4,9 C 0,0 km/h (0 Bft)
13.12.2013 18:35 -3,6 C 90 % 1024,3 hPa 0,0 l/m 0,6 km/h (0 Bft) O-SO 112 -5,0 C -4,9 C 2,7 km/h (1 Bft)
13.12.2013 18:40 -3,7 C 90 % 1024,3 hPa 0,0 l/m 1,0 km/h (0 Bft) O-SO 112 -5,1 C -4,8 C 0,0 km/h (0 Bft)
13.12.2013 18:45 -3,8 C 90 % 1024,2 hPa 0,0 l/m 0,5 km/h (0 Bft) O-SO 112 -5,2 C -4,8 C 0,0 km/h (0 Bft)
13.12.2013 18:50 -4,4 C 89 % 1024,2 hPa 0,0 l/m 0,2 km/h (0 Bft) O-NO 67 -5,9 C -5,0 C 4,2 km/h (1 Bft)
13.12.2013 18:55 -3,3 C 90 % 1024,2 hPa 0,0 l/m 2,3 km/h (1 Bft) O 90 -4,7 C -4,9 C 6,6 km/h (2 Bft)
13.12.2013 19:00 -2,8 C 91 % 1024,2 hPa 0,0 l/m 5,3 km/h (1 Bft) O-SO 112 -4,1 C -6,3 C 5,8 km/h (2 Bft)
13.12.2013 19:05 -3,1 C 90 % 1024,4 hPa 0,0 l/m 4,7 km/h (1 Bft) N-NO 22 -4,5 C -5,8 C 1,6 km/h (1 Bft)
13.12.2013 19:10 -4,2 C 90 % 1024,4 hPa 0,0 l/m 2,9 km/h (1 Bft) N 360 -5,6 C -5,0 C 2,1 km/h (1 Bft)
13.12.2013 19:15 -4,1 C 90 % 1024,4 hPa 0,0 l/m 1,8 km/h (1 Bft) O 90 -5,5 C -4,3 C 5,0 km/h (1 Bft)
13.12.2013 19:20 -3,4 C 90 % 1024,4 hPa 0,0 l/m 2,1 km/h (1 Bft) NO 45 -4,8 C -4,3 C 2,9 km/h (1 Bft)
13.12.2013 19:25 -3,2 C 90 % 1024,7 hPa 0,0 l/m 2,9 km/h (1 Bft) O 90 -4,6 C -5,1 C 4,5 km/h (1 Bft)
13.12.2013 19:30 -3,2 C 91 % 1024,7 hPa 0,0 l/m 3,4 km/h (1 Bft) O 90 -4,5 C -5,3 C 4,0 km/h (1 Bft)
13.12.2013 19:35 -3,4 C 91 % 1024,7 hPa 0,0 l/m 3,2 km/h (1 Bft) O-SO 112 -4,7 C -5,3 C 4,3 km/h (1 Bft)
13.12.2013 19:40 -3,4 C 91 % 1024,7 hPa 0,0 l/m 2,3 km/h (1 Bft) O-NO 67 -4,7 C -4,7 C 0,0 km/h (0 Bft)
13.12.2013 19:45 -4,4 C 90 % 1024,8 hPa 0,0 l/m 1,4 km/h (1 Bft) NO 45 -5,8 C -4,7 C 2,9 km/h (1 Bft)
13.12.2013 19:50 -4,6 C 89 % 1024,8 hPa 0,0 l/m 1,6 km/h (1 Bft) N-NO 22 -6,1 C -4,8 C 0,0 km/h (0 Bft)
13.12.2013 19:55 -4,2 C 90 % 1024,8 hPa 0,0 l/m 2,1 km/h (1 Bft) O-SO 112 -5,6 C -4,8 C 0,0 km/h (0 Bft)
13.12.2013 20:00 -4,0 C 90 % 1024,8 hPa 0,0 l/m 1,0 km/h (0 Bft) NO 45 -5,4 C -4,9 C 1,9 km/h (1 Bft)
13.12.2013 20:05 -3,8 C 90 % 1024,8 hPa 0,0 l/m 1,3 km/h (1 Bft) O-SO 112 -5,2 C -4,8 C 0,0 km/h (0 Bft)
13.12.2013 20:10 -3,7 C 90 % 1024,8 hPa 0,0 l/m 1,8 km/h (1 Bft) O 90 -5,1 C -4,8 C 0,0 km/h (0 Bft)
13.12.2013 20:14 -4,0 C 90 % 1024,8 hPa 0,0 l/m 1,6 km/h (1 Bft) O 90 -5,4 C -4,9 C 1,9 km/h (1 Bft)
13.12.2013 20:15 -4,0 C 90 % 1024,8 hPa 0,0 l/m 1,6 km/h (1 Bft) O 90 -5,4 C -4,9 C 1,9 km/h (1 Bft)
13.12.2013 20:20 -3,8 C 90 % 1024,8 hPa 0,0 l/m 1,4 km/h (1 Bft) O-SO 112 -5,2 C -5,0 C 3,9 km/h (1 Bft)
13.12.2013 20:25 -3,4 C 90 % 1024,8 hPa 0,0 l/m 2,9 km/h (1 Bft) O 90 -4,8 C -5,8 C 4,0 km/h (1 Bft)
13.12.2013 20:30 -4,2 C 90 % 1024,8 hPa 0,0 l/m 2,1 km/h (1 Bft) O-NO 67 -5,6 C -5,1 C 0,0 km/h (0 Bft)
13.12.2013 20:35 -4,6 C 89 % 1024,8 hPa 0,0 l/m 1,0 km/h (0 Bft) NO 45 -6,1 C -5,2 C 0,0 km/h (0 Bft)
13.12.2013 20:40 -5,1 C 89 % 1024,8 hPa 0,0 l/m 0,0 km/h (0 Bft) NO 45 -6,6 C -5,5 C 0,0 km/h (0 Bft)
13.12.2013 20:45 -4,7 C 89 % 1024,9 hPa 0,0 l/m 0,3 km/h (0 Bft) O 90 -6,2 C -5,6 C 0,0 km/h (0 Bft)
13.12.2013 20:50 -4,1 C 90 % 1024,9 hPa 0,0 l/m 0,8 km/h (0 Bft) O 90 -5,5 C -5,5 C 3,4 km/h (1 Bft)
13.12.2013 20:55 -3,9 C 90 % 1024,9 hPa 0,0 l/m 1,6 km/h (1 Bft) O 90 -5,3 C -5,3 C 2,6 km/h (1 Bft)
13.12.2013 21:00 -4,1 C 90 % 1024,9 hPa 0,0 l/m 1,4 km/h (1 Bft) O 90 -5,5 C -5,3 C 2,6 km/h (1 Bft)
13.12.2013 21:05 -4,4 C 90 % 1024,9 hPa 0,0 l/m 0,5 km/h (0 Bft) O-NO 67 -5,8 C -5,4 C 1,9 km/h (1 Bft)
13.12.2013 21:10 -4,9 C 89 % 1024,9 hPa 0,0 l/m 0,3 km/h (0 Bft) O-SO 112 -6,4 C -5,6 C 0,0 km/h (0 Bft)
13.12.2013 21:15 -4,7 C 89 % 1024,9 hPa 0,0 l/m 0,5 km/h (0 Bft) O-NO 67 -6,2 C -5,7 C 4,5 km/h (1 Bft)
13.12.2013 21:20 -4,4 C 90 % 1024,9 hPa 0,0 l/m 1,8 km/h (1 Bft) O-NO 67 -5,8 C -5,5 C 4,0 km/h (1 Bft)
13.12.2013 21:25 -4,6 C 90 % 1025,1 hPa 0,0 l/m 1,9 km/h (1 Bft) NO 45 -6,0 C -5,5 C 0,0 km/h (0 Bft)
13.12.2013 21:30 -4,8 C 90 % 1025,1 hPa 0,0 l/m 0,6 km/h (0 Bft) NO 45 -6,2 C -5,7 C 0,0 km/h (0 Bft)
13.12.2013 21:35 -4,7 C 90 % 1025,1 hPa 0,0 l/m 0,2 km/h (0 Bft) NO 45 -6,1 C -5,7 C 0,0 km/h (0 Bft)
13.12.2013 21:40 -4,6 C 90 % 1025,1 hPa 0,0 l/m 0,6 km/h (0 Bft) O-SO 112 -6,0 C -5,7 C 3,4 km/h (1 Bft)
13.12.2013 21:45 -4,9 C 90 % 1025,1 hPa 0,0 l/m 0,8 km/h (0 Bft) O-SO 112 -6,3 C -5,6 C 0,0 km/h (0 Bft)
13.12.2013 21:50 -5,4 C 89 % 1025,1 hPa 0,0 l/m 0,3 km/h (0 Bft) O 90 -6,9 C -5,9 C 0,0 km/h (0 Bft)
13.12.2013 21:55 -4,6 C 90 % 1025,1 hPa 0,0 l/m 1,0 km/h (0 Bft) O-SO 112 -6,0 C -5,8 C 0,0 km/h (0 Bft)
13.12.2013 22:00 -5,5 C 89 % 1025,1 hPa 0,0 l/m 1,0 km/h (0 Bft) NO 45 -7,0 C -5,7 C 0,0 km/h (0 Bft)
13.12.2013 22:05 -5,6 C 89 % 1025,2 hPa 0,0 l/m 0,3 km/h (0 Bft) O 90 -7,1 C -5,9 C 0,0 km/h (0 Bft)
13.12.2013 22:10 -5,1 C 90 % 1025,2 hPa 0,0 l/m 0,2 km/h (0 Bft) O-SO 112 -6,5 C -6,0 C 0,0 km/h (0 Bft)
13.12.2013 22:15 -5,2 C 90 % 1025,2 hPa 0,0 l/m 0,5 km/h (0 Bft) NO 45 -6,6 C -5,9 C 3,7 km/h (1 Bft)
13.12.2013 22:20 -5,3 C 90 % 1025,2 hPa 0,0 l/m 0,6 km/h (0 Bft) N-NO 22 -6,7 C -5,7 C 0,0 km/h (0 Bft)
13.12.2013 22:25 -6,0 C 89 % 1025,2 hPa 0,0 l/m 0,6 km/h (0 Bft) N-NO 22 -7,5 C -5,7 C 0,0 km/h (0 Bft)
13.12.2013 22:30 -6,1 C 89 % 1025,2 hPa 0,0 l/m 0,0 km/h (0 Bft) SO 135 -7,6 C -6,0 C 0,0 km/h (0 Bft)
13.12.2013 22:35 -5,9 C 89 % 1025,2 hPa 0,0 l/m 0,0 km/h (0 Bft) SO 135 -7,4 C -6,0 C 0,0 km/h (0 Bft)
13.12.2013 22:40 -6,1 C 89 % 1025,2 hPa 0,0 l/m 0,0 km/h (0 Bft) SO 135 -7,6 C -6,1 C 0,0 km/h (0 Bft)
13.12.2013 22:45 -6,4 C 89 % 1025,2 hPa 0,0 l/m 0,0 km/h (0 Bft) SO 135 -7,9 C -6,2 C 0,0 km/h (0 Bft)
13.12.2013 22:50 -6,0 C 89 % 1025,2 hPa 0,0 l/m 0,0 km/h (0 Bft) NO 45 -7,5 C -6,2 C 0,0 km/h (0 Bft)
13.12.2013 22:55 -6,1 C 89 % 1025,2 hPa 0,0 l/m 0,0 km/h (0 Bft) O 90 -7,6 C -6,2 C 0,0 km/h (0 Bft)
13.12.2013 23:00 -6,3 C 89 % 1025,2 hPa 0,0 l/m 0,0 km/h (0 Bft) N-NO 22 -7,8 C -6,2 C 0,0 km/h (0 Bft)
13.12.2013 23:05 -6,0 C 90 % 1025,5 hPa 0,0 l/m 0,0 km/h (0 Bft) NO 45 -7,4 C -6,2 C 0,0 km/h (0 Bft)
13.12.2013 23:10 -5,9 C 90 % 1025,5 hPa 0,0 l/m 0,5 km/h (0 Bft) NO 45 -7,3 C -6,2 C 0,0 km/h (0 Bft)
13.12.2013 23:15 -6,0 C 90 % 1025,5 hPa 0,0 l/m 0,3 km/h (0 Bft) NO 45 -7,4 C -6,2 C 0,0 km/h (0 Bft)
13.12.2013 23:20 -6,1 C 90 % 1025,5 hPa 0,0 l/m 0,0 km/h (0 Bft) N-NO 22 -7,5 C -6,2 C 0,0 km/h (0 Bft)
13.12.2013 23:25 -6,3 C 90 % 1025,5 hPa 0,0 l/m 0,2 km/h (0 Bft) N-NO 22 -7,7 C -6,1 C 0,0 km/h (0 Bft)
13.12.2013 23:30 -6,3 C 90 % 1025,5 hPa 0,0 l/m 0,0 km/h (0 Bft) N-NO 22 -7,7 C -6,1 C 0,0 km/h (0 Bft)
13.12.2013 23:35 -6,1 C 90 % 1025,5 hPa 0,0 l/m 0,0 km/h (0 Bft) N-NO 22 -7,5 C -6,4 C 0,0 km/h (0 Bft)
13.12.2013 23:40 -6,7 C 90 % 1025,5 hPa 0,0 l/m 0,0 km/h (0 Bft) N-NO 22 -8,1 C -6,4 C 0,0 km/h (0 Bft)
13.12.2013 23:45 -6,6 C 89 % 1025,5 hPa 0,0 l/m 0,0 km/h (0 Bft) N-NO 22 -8,1 C -6,6 C 0,0 km/h (0 Bft)
13.12.2013 23:50 -6,6 C 89 % 1025,5 hPa 0,0 l/m 0,0 km/h (0 Bft) N-NO 22 -8,1 C -6,4 C 0,0 km/h (0 Bft)
13.12.2013 23:55 -6,8 C 89 % 1025,5 hPa 0,0 l/m 0,0 km/h (0 Bft) N-NO 22 -8,3 C -6,3 C 0,0 km/h (0 Bft)
_ Min-Zeit 07:20 14:15 19:00 - 23:55 - - 07:20 07:40 23:55
Minimum _ -7,8 C 84 % 1024,2 hPa - 0,0 km/h (0 Bft) - - -9,3 C -7,5 C 0,0 km/h (0 Bft)
_ Max-Zeit 14:05 12:25 00:00 23:55 03:55 - - 14:05 14:15 03:50
Maximum _ 4,0 C 95 % 1027,8 hPa 0,0 l/m 6,0 km/h
O (2 Bft)
- - 1,7 C 9,8 C 8,5 km/h
O-NO (2 Bft)
Durchschnitt _ -3,9 C 90 % 1025,7 hPa #0,0 l/m 0,5 km/h (0 Bft) O - -5,3 C -4,0 C 0,6 km/h (0 Bft)